Location: Lafig�re
(44.4503°N, 4.0357°E)
Time: 01:08:34
(UTC+00:00)

ARGOS - Pass Details

Date: 30 January 2021
Orbit: 821 x 834 km, 98.4° (Epoch: 03 March)

Event Time Altitude Azimuth Distance (km) Brightness Sun altitude
Rises 06:19:10 0° 31° (NNE) 3,387 6.5 -8.4°
Reaches altitude 10° 06:22:36 10° 54° (NE) 2,449 6.2 -7.8°
Maximum altitude 06:25:42 15° 89° (E) 2,090 6.5 -7.3°
Drops below altitude 10° 06:28:48 10° 124° (SE) 2,441 7.1 -6.8°
Sets 06:32:12 0° 147° (SSE) 3,369 7.3 -6.2°
